#timestamp,LO_Frequency,Hit 
1502384415.4,286047003.1,N
1502384435.2,286047001.4,N
1502384455.1,286047005.8,N
1502384456.0,286047005.8,N
1502384475.8,286047007.6,P
1502384495.6,286047002.2,N
1502384515.5,286047000.9,N
1502384535.3,286047002.4,N
1502384555.1,286047002.4,N
1502384575.9,286046999.3,N
1502384595.7,286047000.6,N
1502384615.5,286047004.0,N
1502384635.4,286047010.7,P
1502384655.2,286047010.5,N
1502384675.0,286047009.6,N
1502384675.9,286047009.6,N
1502384695.8,286047007.8,N
1502384715.6,286047006.6,N
1502384735.4,286047007.4,N
1502384755.3,286047004.6,N
1502384775.1,286047007.6,N
1502384776.0,286047007.6,N
1502384795.8,286047007.0,N
1502384815.7,286047007.6,P
1502384835.5,286046997.7,P
1502384855.3,286047000.6,N
1502384875.2,286046999.4,N
1502384895.9,286046998.8,N
1502384915.7,286046999.0,N
1502384935.6,286046997.5,N
1502384955.4,286046991.8,N
1502384975.2,286046994.0,N
1502384995.0,286046993.4,N
1502384996.0,286046993.4,N
1502385015.8,286046995.5,N
1502385035.6,286046997.9,N
1502385055.5,286046994.2,N
1502385075.3,286046992.8,N
1502385095.1,286046992.0,N
1502385115.9,286046991.9,N
1502385135.7,286046992.4,N
1502385155.5,286046991.5,N
1502385175.4,286046992.3,N
1502385195.2,286046992.4,N
1502385215.0,286046991.1,N
1502385215.9,286046991.1,N
1502385235.7,286046993.4,N
1502385255.6,286046997.3,N
1502385275.4,286046999.2,N
1502385295.2,286046998.0,N
1502385315.1,286046997.1,N
1502385316.0,286046997.1,N
1502385335.8,286046998.5,N
1502385355.6,286046999.1,N
1502385375.5,286047000.2,N
1502385395.3,286046996.8,N
1502385415.1,286046992.1,N
1502385435.9,286046992.2,N
1502385455.7,286046991.9,N
1502385475.5,286046990.6,P
1502385495.4,286046998.5,N
1502385515.2,286047000.8,N
1502385535.0,286047001.0,N
1502385535.9,286047001.0,N
1502385555.8,286047000.4,N
1502385575.6,286047002.0,N
1502385595.4,286047000.1,N
1502385615.3,286047000.8,N
1502385635.1,286047000.5,N
1502385636.0,286047000.5,N
1502385655.8,286047001.0,N
1502385675.7,286047002.8,N
1502385695.5,286047001.5,N
1502385715.3,286046999.7,N
1502385735.2,286047000.1,N
1502385755.9,286047006.0,N
1502385775.7,286047005.8,N
1502385795.5,286047003.8,N
1502385815.4,286047004.4,N
1502385835.2,286047001.4,N
1502385855.0,286047001.4,N
1502385855.9,286047001.4,N
1502385875.8,286046998.5,N
1502385895.6,286046999.3,N
1502385915.4,286047002.0,N
1502385935.3,286047001.2,N
1502385955.1,286046999.4,N
1502385975.8,286046998.9,N
1502385995.7,286047000.4,N
1502386015.5,286047000.5,N
1502386035.3,286047002.7,N
1502386055.2,286047000.1,N
1502386075.9,286047002.6,N
1502386095.7,286047003.1,N
1502386115.6,286047009.0,P
1502386135.4,286047004.5,N
1502386155.2,286047004.0,N
1502386175.1,286047000.9,N
1502386176.0,286047000.9,N
1502386195.8,286047000.9,N
1502386215.6,286047002.8,N
1502386235.5,286047001.5,N
1502386255.3,286047001.8,N
1502386275.1,286047004.4,N
1502386295.8,286047004.0,N
1502386315.7,286047003.9,N
1502386335.5,286047005.5,N
1502386355.4,286047007.6,P
1502386375.2,286046998.5,N
1502386395.0,286047000.0,N
1502386395.9,286047000.0,N
1502386415.7,286047002.4,N
1502386435.6,286047002.4,N
1502386455.4,286046998.2,N
1502386475.2,286046998.1,N
1502386495.1,286047000.0,N
1502386496.0,286047000.0,N
1502386515.8,286046996.7,N
1502386535.6,286046997.7,N
1502386555.5,286046996.0,N
1502386575.3,286046996.1,N
1502386595.1,286046995.9,N
1502386615.9,286046996.0,N
1502386635.7,286046997.5,N
1502386655.5,286046995.8,N
1502386675.4,286046993.9,N
1502386695.2,286046993.9,N
1502386715.0,286046995.0,N
1502386715.9,286046995.0,N
1502386735.7,286046997.7,N
1502386755.6,286047001.1,N
1502386775.4,286046999.6,N
1502386795.2,286047001.1,N
1502386815.1,286047000.1,N
1502386816.0,286047000.1,N
1502386835.8,286046996.0,N
1502386855.6,286046993.7,N
1502386875.5,286046995.5,N
1502386895.3,286046999.1,N
1502386915.1,286047002.7,N
1502386935.9,286047002.8,N
1502386955.7,286047002.1,N
1502386975.5,286047000.5,N
1502386995.4,286046998.2,N
1502387015.2,286047002.1,N
1502387035.0,286047004.0,N
1502387035.9,286047004.0,N
1502387055.8,286047001.9,N
1502387075.6,286047003.1,N
1502387095.4,286047003.4,N
1502387115.3,286047007.2,N
1502387135.1,286047004.6,N
1502387136.0,286047004.6,N
1502387155.8,286047005.9,N
1502387175.7,286047003.9,N
1502387195.5,286047001.1,N
1502387215.3,286046998.8,N
1502387235.1,286047000.8,N
1502387255.9,286047000.9,N
1502387275.7,286047000.6,N
1502387295.5,286047000.9,N
1502387315.4,286047001.3,N
1502387335.2,286047004.8,N
1502387355.0,286047003.1,N
1502387355.9,286047003.1,N
1502387375.8,286047006.0,N
1502387395.6,286047004.4,N
1502387415.4,286047004.0,N
1502387435.3,286046999.8,N
1502387455.1,286047000.2,N
1502387456.0,286047000.2,N
1502387475.8,286047006.0,N
1502387495.7,286047005.4,N
1502387515.5,286047004.7,N
1502387535.3,286047009.0,P
1502387555.2,286047005.1,N
1502387575.9,286047003.8,N
1502387595.7,286047000.4,N
1502387615.6,286047002.3,N
1502387635.4,286046999.6,N
1502387655.2,286047000.7,N
1502387675.1,286046999.8,N
1502387676.0,286046999.8,N
1502387695.8,286047002.8,N
1502387715.6,286047000.2,N
1502387735.4,286046997.3,N
1502387755.3,286046996.0,N
1502387775.1,286046995.2,N
1502387795.8,286046998.9,N
1502387815.7,286047001.1,N
1502387835.5,286046998.6,N
1502387855.3,286047000.9,N
1502387875.2,286046999.6,N
1502387895.9,286046997.4,N
1502387915.7,286046999.2,N
1502387935.6,286046997.7,N
1502387955.4,286046995.1,N
1502387975.2,286046996.1,N
1502387995.1,286046996.1,N
1502387996.0,286046996.1,N
